SCP
0 0 0 0 0 0 0 0 0 0 0 0 0 0 0 0 0 0 0 0 0 0 0 0 0 0 0 0 0 0 0 0 0 0 0 0 0 0 0 0 0 0 0 0 0 0 0 0 0
0 0 0 0 0 0 0 0 0 0 0 0 0 0 0 0 0 0 0 0 0 0 0 0 0 0 0 0 0 0 0 0 0 0 0 0 0 0 0 0 0 0 0 0 0 0 0 1 1
0 0 0 0 0 0 0 0 0 0 0 0 0 0 0 0 0 0 0 0 0 0 0 0 0 0 0 0 0 0 0 0 0 0 0 0 0 0 0 0 0 0 0 0 0 0 0 1 1
0 0 0 0 0 0 0 0 0 0 0 0 0 0 0 0 0 0 0 0 0 0 0 0 0 0 0 0 0 0 0 0 0 0 0 0 0 0 0 0 0 0 0 0 0 0 0 0 0
0 0 0 0 0 0 0 0 0 0 0 0 0 0 0 0 0 0 0 0 0 0 0 0 0 0 0 0 0 0 0 0 0 0 0 0 0 0 0 0 0 0 0 0 0 0 0 0 0
0 0 0 0 0 0 0 0 0 0 0 0 0 0 0 0 0 0 0 0 0 0 0 0 0 0 0 0 0 0 0 0 0 0 0 0 0 0 0 0 0 0 0 0 0 0 0 0 0
0 0 0 0 0 0 0 0 0 0 0 0 0 0 0 0 0 0 0 0 0 0 0 0 0 0 0 0 0 0 0 0 0 0 0 0 0 0 0 0 0 0 0 0 0 0 0 0 0
0 0 0 0 0 0 0 0 0 0 0 0 0 0 0 0 0 0 0 0 0 0 0 0 0 0 0 0 0 0 0 0 0 0 0 0 0 0 0 0 0 0 0 0 0 0 0 0 0
0 0 0 0 0 0 0 0 0 0 0 0 0 0 0 0 0 0 0 0 0 0 0 0 0 0 0 0 0 0 0 0 0 0 0 0 0 0 0 0 0 0 0 0 0 0 0 0 0
0 0 0 0 0 0 0 0 0 0 0 0 0 0 0 0 0 0 0 0 0 0 0 0 0 0 0 0 0 0 0 0 0 0 0 0 0 0 0 0 0 0 0 0 0 0 0 0 0
0 0 0 0 0 0 0 0 0 0 0 0 0 0 0 0 0 0 0 0 0 0 0 0 0 0 0 0 0 0 0 0 0 0 0 0 0 0 0 0 0 0 0 0 0 0 0 0 0
0 0 0 0 0 0 0 0 0 0 0 0 0 0 0 0 0 0 0 0 0 0 0 0 0 0 0 0 0 0 0 0 0 0 0 0 0 0 0 0 0 0 0 0 0 0 0 0 0
0 0 0 0 0 0 0 0 0 0 0 0 0 0 0 0 0 0 0 0 0 0 0 0 0 0 0 0 0 0 0 0 0 0 0 0 0 0 0 0 0 0 0 0 0 0 0 0 0
0 0 0 0 0 0 0 0 0 0 0 0 0 0 0 0 0 0 0 0 0 0 0 0 0 0 0 0 0 0 0 0 0 0 0 0 0 0 0 0 0 0 0 0 0 0 0 0 0
0 0 0 0 0 0 0 0 0 0 0 0 0 0 0 0 0 0 0 0 0 0 0 0 0 0 0 0 0 0 0 0 0 0 0 0 0 0 0 0 0 0 0 0 0 0 0 0 0
0 0 0 0 0 0 0 0 0 0 0 0 0 0 0 0 0 0 0 0 0 0 0 0 0 0 0 0 0 0 0 0 0 0 0 0 0 0 0 0 0 0 0 0 0 0 0 0 0
0 0 0 0 0 0 0 0 0 0 0 0 0 0 0 0 0 0 0 0 0 0 0 0 0 0 0 0 0 0 0 0 0 0 0 0 0 0 0 0 0 0 0 0 0 0 0 0 0
0 0 0 0 0 0 0 0 0 0 0 0 0 0 0 0 0 0 0 0 0 0 0 0 0 0 0 0 0 0 0 0 0 0 0 0 0 0 0 0 0 0 0 0 0 0 0 0 0
0 0 0 0 0 0 0 0 0 0 0 0 0 0 0 0 0 0 0 0 0 0 0 0 0 0 0 0 0 0 0 0 0 0 0 0 0 0 0 0 0 0 0 0 0 0 0 0 0
0 0 0 0 0 0 0 0 0 0 0 0 0 0 0 0 0 0 0 0 0 0 0 0 0 0 0 0 0 0 0 0 0 0 0 0 0 0 0 0 0 0 0 0 0 0 0 0 0
0 0 0 0 0 0 0 0 0 0 0 0 0 0 0 0 0 0 0 0 0 0 0 0 0 0 0 0 0 0 0 0 0 0 0 0 0 0 0 0 0 0 0 0 0 0 0 0 0
0 0 0 0 0 0 0 0 0 0 0 0 0 0 0 0 0 0 0 0 0 0 0 0 0 0 0 0 0 0 0 0 0 0 0 0 0 0 0 0 0 0 0 0 0 0 0 0 0
0 0 0 0 0 0 0 0 0 0 0 0 0 0 0 0 0 0 0 0 0 0 0 0 0 0 0 0 0 0 0 0 0 0 0 0 0 0 0 0 0 0 0 0 0 0 0 0 0
0 0 0 0 0 0 0 0 0 0 0 0 0 0 0 0 0 0 0 0 0 0 0 0 0 0 0 0 0 0 0 0 0 0 0 0 0 0 0 0 0 0 0 0 0 0 0 0 0
0 0 0 0 0 0 0 0 0 0 0 0 0 0 0 0 0 0 0 0 0 0 0 0 0 0 0 0 0 0 0 0 0 0 0 0 0 0 0 0 0 0 0 0 0 0 0 0 0
0 0 0 0 0 0 0 0 0 0 0 0 0 0 0 0 0 0 0 0 0 0 0 0 0 0 0 0 0 0 0 0 0 0 0 0 0 0 0 0 0 0 0 0 0 0 0 0 0
0 0 0 0 0 0 0 0 0 0 0 0 0 0 0 0 0 0 0 0 0 0 0 0 0 0 0 0 0 0 0 0 0 0 0 0 0 0 0 0 0 0 0 0 0 0 0 0 0
0 0 0 0 0 0 0 0 0 0 0 0 0 0 0 0 0 0 0 0 0 0 0 0 0 0 0 0 0 0 0 0 0 0 0 0 0 0 0 0 0 0 0 0 0 0 0 0 0
0 0 0 0 0 0 0 0 0 0 0 0 0 0 0 0 0 0 0 0 0 0 0 0 0 0 0 0 0 0 0 0 0 0 0 0 0 0 0 0 0 0 0 0 0 0 0 0 0
0 0 0 0 0 0 0 0 0 0 0 0 0 0 0 0 0 0 0 0 0 0 0 0 0 0 0 0 0 0 0 0 0 0 0 0 0 0 0 0 0 0 0 0 0 0 0 0 0
Wind_Speed
4 2 2 2 3 2 3 4 3 6 5 4 4 5 6 4 3 2 5 3 2 4 7 7 10 10 10 10 11 11 12 12 12 13 13 13 14 14 15 14 13 10 9 9 10 10 11 9 7
5 2 2 2 4 4 3 6 8 7 5 7 5 2 3 2 1 5 6 4 3 5 6 8 9 10 10 11 11 12 12 12 12 13 12 13 15 15 13 13 12 12 11 11 10 10 11 10 10
2 1 2 2 3 3 1 7 8 6 9 6 5 2 2 2 4 7 6 6 4 4 6 9 9 10 11 12 12 13 14 15 15 15 13 13 14 14 14 14 14 14 13 13 13 13 13 12 10
2 3 2 4 4 2 1 5 8 11 7 5 3 4 2 1 3 7 9 7 6 5 6 8 9 10 11 11 12 13 14 15 15 16 15 16 16 15 14 16 16 16 15 14 14 14 15 14 12
2 3 4 4 3 2 3 4 9 12 8 6 6 3 3 4 6 10 9 7 6 6 6 7 9 10 10 11 11 12 13 14 15 15 14 15 15 15 15 15 15 15 16 17 16 15 15 15 15
3 3 5 4 2 2 3 7 9 11 7 4 5 4 1 7 11 10 8 7 5 5 5 5 8 9 10 11 11 12 12 13 13 14 14 13 14 14 14 14 15 15 14 14 13 14 15 16 15
3 3 3 3 2 3 4 8 10 11 10 7 4 5 3 10 13 11 9 7 5 4 4 4 6 7 10 12 12 12 11 11 11 12 11 11 11 12 12 13 14 13 13 13 12 12 13 13 13
1 3 3 3 3 3 6 7 4 9 8 3 5 6 4 12 15 12 9 7 6 5 5 5 5 6 6 8 10 11 11 11 10 10 9 7 7 9 10 11 13 13 13 13 12 12 12 13 12
2 4 4 4 4 2 6 8 5 2 4 5 7 4 2 12 17 14 11 9 8 6 5 5 5 5 5 5 5 6 8 8 8 7 7 5 5 6 7 9 12 12 12 11 11 12 13 12 9
3 4 3 2 3 2 5 8 6 7 9 9 10 9 7 16 19 18 16 15 13 11 7 5 5 5 5 4 3 3 3 4 5 5 5 5 5 6 7 7 11 11 11 10 10 10 10 8 7
2 4 1 3 4 4 4 6 5 8 12 14 14 14 16 20 21 20 19 18 15 12 9 8 7 6 5 4 3 2 2 2 4 6 6 5 4 5 5 5 6 7 8 8 8 7 5 6 7
4 4 3 2 3 5 5 5 7 14 16 4 6 7 18 23 24 23 21 18 15 14 11 10 9 7 6 4 3 3 3 2 3 4 5 4 3 4 5 5 7 6 6 7 6 5 6 7 8
5 3 4 4 4 6 5 9 9 17 18 10 5 8 17 21 23 21 18 17 16 15 13 11 9 8 7 6 5 4 3 3 3 4 6 6 5 5 6 6 6 6 7 7 7 7 8 8 9
2 5 7 6 6 6 9 9 7 15 7 10 11 14 17 21 23 22 21 20 19 17 15 13 11 10 9 7 5 4 3 3 4 4 5 7 6 6 6 6 6 7 8 8 8 9 8 8 9
2 7 8 8 6 5 5 12 16 14 7 10 13 15 17 20 23 25 24 22 20 18 16 14 11 10 9 7 5 4 4 3 3 4 5 5 5 6 6 6 7 8 8 9 8 9 8 9 10
2 4 6 5 7 5 5 16 12 6 9 14 15 15 18 21 24 24 22 21 20 18 16 14 10 9 8 5 4 3 3 3 3 3 2 3 5 6 6 6 6 7 8 7 7 8 8 9 10
6 9 8 6 8 6 10 17 11 7 10 18 19 17 18 19 23 24 23 22 21 20 18 16 13 11 9 7 4 3 2 2 1 1 1 3 5 6 6 6 6 7 6 6 6 7 8 9 11
11 10 11 11 6 9 13 20 24 20 17 25 25 20 19 21 26 26 24 22 20 19 18 17 14 13 10 7 4 3 3 2 1 1 1 2 3 5 6 6 6 6 6 6 6 7 8 9 10
9 11 18 15 4 9 17 21 26 26 24 27 25 22 19 22 22 22 22 21 20 20 19 18 15 13 10 7 6 4 4 3 3 3 4 4 4 5 6 6 6 6 6 7 7 7 8 8 8
8 13 18 14 2 7 16 22 25 26 29 27 26 22 16 17 18 20 21 22 23 23 21 19 17 15 12 7 5 2 1 2 2 3 5 5 5 6 6 7 7 7 6 7 6 7 7 7 5
13 17 15 11 6 7 13 21 13 13 14 16 20 18 14 16 19 22 24 26 24 24 23 20 19 16 13 9 6 4 2 3 4 5 4 5 6 6 7 7 8 7 6 6 7 7 8 7 7
14 11 10 7 7 8 6 25 10 9 9 15 19 12 13 15 18 21 24 26 26 24 22 21 18 15 12 11 8 8 6 7 5 3 4 6 7 7 8 8 8 7 6 7 7 7 8 9 9
5 3 3 4 7 9 9 16 12 3 8 17 19 11 14 15 16 19 22 23 24 21 19 19 18 16 14 13 11 9 8 7 4 5 7 8 8 8 7 8 9 8 8 8 9 10 10 9 11
5 3 2 2 4 13 13 18 17 5 8 13 15 10 10 11 14 15 17 19 20 20 19 19 19 17 15 15 14 12 10 8 7 7 7 6 6 6 8 9 9 9 9 9 9 10 12 11 12
6 5 6 7 8 13 2 12 18 12 13 15 17 8 8 9 11 14 17 20 22 23 22 20 21 19 17 16 15 13 12 10 9 8 7 6 6 7 8 8 9 9 10 10 10 11 12 13 14
11 9 10 12 14 15 4 17 16 10 13 14 11 6 6 9 9 12 16 19 21 23 24 23 23 21 19 17 15 13 11 8 7 6 5 6 7 8 9 9 10 11 11 12 12 11 13 13 14
8 10 6 6 6 14 19 26 17 5 8 9 12 13 14 11 11 13 16 19 21 24 25 25 25 23 20 17 15 12 10 8 7 6 6 7 8 7 9 10 10 11 12 13 13 11 15 15 15
2 5 6 6 7 16 30 30 18 6 12 10 12 15 15 11 12 13 15 18 20 21 22 23 24 23 20 17 13 10 10 8 6 5 7 7 8 8 9 9 10 11 12 13 13 12 14 16 16
11 9 6 4 7 10 22 26 2 3 3 10 13 13 11 12 14 14 15 18 19 19 21 23 23 22 19 16 14 12 10 7 6 6 6 7 8 8 9 9 10 11 12 13 14 14 15 17 18
10 12 17 13 12 11 11 29 3 2 4 6 6 8 9 11 12 12 14 16 19 22 22 23 21 20 19 16 14 11 9 8 7 6 6 6 7 8 8 9 11 12 13 13 14 14 15 18 20
Wind_Direction
117 145 272 254 238 224 159 164 178 166 162 132 144 171 199 188 170 159 109 90 77 39 11 22 36 40 47 51 53 53 55 52 52 52 49 46 44 40 37 35 30 17 355 336 327 323 323 326 319
136 175 235 246 255 241 158 167 194 176 131 131 140 165 197 185 107 131 143 114 92 51 16 38 38 50 52 52 54 56 58 55 54 51 48 51 51 46 41 39 34 28 17 3 346 335 328 331 332
137 255 251 231 248 281 167 183 182 148 142 158 158 210 238 165 155 147 122 111 100 67 31 41 38 51 53 53 55 56 53 51 50 50 47 48 48 42 35 37 36 32 23 15 8 3 355 346 333
202 188 201 238 239 246 246 177 163 151 172 204 197 185 207 116 137 134 128 123 108 72 42 37 38 50 54 56 57 56 54 52 52 51 49 51 46 43 39 37 33 29 21 14 10 9 5 359 350
220 234 232 234 230 215 206 187 177 176 182 183 199 198 192 151 129 134 137 134 110 79 43 32 37 50 57 62 63 64 62 59 56 53 52 50 45 42 40 36 32 27 19 12 9 9 4 1 357
220 243 245 253 218 220 197 183 188 205 197 165 207 228 143 142 155 151 149 131 109 87 60 46 45 53 61 62 62 63 65 64 61 56 51 48 45 40 36 30 26 21 16 12 11 10 3 2 358
245 241 270 285 270 234 186 170 201 210 214 203 193 228 160 172 165 157 153 140 126 112 109 93 85 80 73 65 63 65 70 71 68 61 53 47 45 40 34 27 21 16 11 6 8 3 357 354 350
269 247 223 226 228 226 163 174 210 214 218 170 201 238 183 174 163 159 156 155 149 141 133 120 114 103 89 79 70 74 79 80 74 63 52 42 38 33 28 20 15 11 8 3 359 354 348 342 335
233 239 235 211 206 200 172 200 179 194 208 201 214 246 87 154 161 167 170 173 169 162 155 143 129 117 112 108 99 95 89 87 80 67 50 37 22 17 12 15 5 6 2 358 355 351 342 331 320
241 252 251 212 205 211 196 222 195 202 214 218 221 210 166 164 174 182 187 187 186 177 166 155 146 138 140 133 131 117 103 86 72 58 44 29 19 11 357 1 356 357 356 351 351 347 334 329 327
242 267 266 229 213 221 213 221 202 233 239 231 227 205 178 180 187 194 197 195 188 176 169 169 166 161 160 154 162 146 121 94 70 53 38 26 18 7 360 354 353 353 354 349 345 338 333 328 319
243 241 245 250 186 203 211 196 217 227 248 276 269 205 183 189 195 199 199 194 182 176 175 177 175 168 160 164 167 154 132 107 86 66 44 27 23 13 4 1 355 353 350 341 334 325 319 313 308
227 224 230 249 244 230 221 233 249 248 248 239 225 198 196 200 202 202 198 192 186 181 177 179 179 174 167 173 171 154 130 100 79 68 48 27 18 12 2 357 352 349 345 337 327 323 321 315 309
228 254 259 261 247 227 239 245 240 254 234 226 224 219 210 209 204 198 196 192 189 185 181 176 178 178 177 178 166 140 114 90 72 60 46 31 15 5 353 350 346 345 345 335 324 321 318 311 309
325 285 263 230 217 216 240 253 236 243 193 224 226 226 218 215 206 204 198 192 187 184 180 180 177 178 179 170 142 124 116 107 88 69 51 30 8 356 348 344 341 344 338 326 322 321 319 314 309
239 254 255 195 187 185 220 266 259 242 223 243 237 226 219 216 210 209 200 194 188 183 181 179 176 177 173 155 134 141 142 118 94 74 48 9 354 352 345 337 330 332 323 320 322 323 322 315 309
223 253 247 237 206 193 217 268 270 215 235 256 253 240 226 217 212 210 201 196 189 183 181 179 180 177 170 163 160 169 172 153 94 72 358 348 343 339 328 315 313 316 308 305 307 307 309 306 305
261 255 261 260 207 211 233 257 274 267 254 260 264 256 237 219 212 205 199 196 188 185 183 182 182 180 173 169 173 180 184 185 180 214 253 294 303 302 302 299 298 293 285 285 294 297 300 298 303
269 263 265 268 211 234 252 260 269 277 272 264 265 260 245 230 221 204 196 192 187 187 186 186 185 183 179 181 186 188 187 187 204 200 228 249 283 293 293 286 281 275 275 288 299 302 299 301 310
239 257 266 272 219 244 272 272 269 267 266 268 269 267 251 236 221 202 193 192 190 189 189 189 189 184 186 183 170 161 169 256 271 266 252 259 280 280 289 292 289 283 286 293 303 307 300 299 311
229 239 253 275 310 257 289 274 252 258 262 268 261 257 244 223 213 200 196 195 192 191 191 191 191 186 182 172 159 158 200 244 238 234 243 260 271 283 280 275 279 289 296 296 295 292 288 287 292
241 238 246 265 286 288 322 290 277 248 248 267 269 243 220 213 211 202 199 197 195 192 189 190 187 182 177 174 179 194 210 226 229 264 279 286 290 287 282 288 290 293 289 279 279 279 279 281 282
225 112 183 234 261 284 249 263 268 204 243 256 263 244 215 205 202 201 201 199 196 190 186 186 183 180 176 179 186 197 217 237 265 279 283 289 291 290 295 291 287 283 274 272 274 277 275 272 276
144 123 148 191 259 260 242 244 270 219 219 244 255 229 204 197 196 201 198 196 193 189 187 183 182 181 179 182 190 201 214 223 236 246 261 271 283 294 286 276 277 279 280 280 280 279 275 273 271
185 202 259 245 226 260 212 239 263 268 242 234 250 236 184 188 189 190 189 191 188 190 190 184 184 184 181 184 191 199 208 216 232 242 251 271 281 276 274 287 292 293 294 294 287 276 270 268 268
186 212 222 255 275 286 238 255 265 234 251 249 260 255 205 211 203 198 194 192 191 190 191 188 186 185 181 185 190 194 200 207 222 240 260 268 269 276 288 292 290 294 296 291 283 276 272 270 269
172 199 220 265 274 276 264 264 268 162 243 243 250 248 239 230 212 202 197 195 193 192 193 190 184 183 182 183 185 187 189 196 207 219 240 254 262 275 286 291 297 299 294 288 284 278 278 277 273
206 158 153 188 238 263 275 280 275 204 231 212 226 235 238 222 217 210 202 201 198 195 193 191 187 182 178 177 179 179 182 189 198 217 239 255 270 280 285 292 298 297 292 286 281 273 271 272 271
171 199 206 233 235 245 269 273 127 200 223 198 213 225 229 223 216 207 207 202 199 196 192 189 187 180 172 171 169 172 176 180 195 222 246 262 273 282 291 299 298 292 290 289 287 286 284 279 276
218 212 198 212 227 231 246 269 197 249 154 175 215 233 229 226 218 210 206 201 198 196 191 188 185 177 167 164 165 170 171 180 198 220 244 262 277 286 294 299 295 292 293 294 292 289 286 284 282